Terminal Aerodrome Forecast
Issued by NWS

Home | Current Version | Previous Version | Text Only | Print | Product List | Glossary On
Versions: 1 2 3 4 5 6 7 8 9 10 11 12 13 14 15 16 17
000
FTUS45 KREV 172300
TAFMMH
TAF
KMMH 172331Z 1800/1824 VRB04KT P6SM VCSH SCT070 BKN120
     FM181000 VRB03KT 6SM -SHSN SCT028 BKN050
     FM181600 VRB03KT P6SM SCT040
      AMD NOT SKED 1802/1814=

USA.gov is the U.S. government's official web portal to all federal, state and local government web resources and services.